Mountain Home, ID

7:16 PM MDT on October 16, 2017 (GMT -0600)
Mountain Home Air Force Base

Weather History for KMUO - April, 2014

Change the Weather History Date:

Wednesday, April 30, 2014

  Actual Average Record
Temperature  
Mean Temperature 52 °F 53 °F  
Max Temperature 72 °F 67 °F 91 °F (1992)
Min Temperature 31 °F 39 °F 15 °F (1913)
Degree Days  
Heating Degree Days 13 12  
Month to date heating degree days 450 477  
Cooling Degree Days 0 0  
Month to date cooling degree days 0 0  
Growing Degree Days 1 (Base 50)    
Moisture  
Dew Point 25 °F    
Average Humidity 40    
Maximum Humidity 92    
Minimum Humidity 13    
Precipitation  
Precipitation 0.00 in 0.03 in 0.52 in (1983)
Month to date precipitation 0.27  
Sea Level Pressure  
Sea Level Pressure 30.43 in    
Wind  
Wind Speed 6 mph (ENE)    
Max Wind Speed 12 mph    
Max Gust Speed -    
Visibility 10 miles    
Events      
T = Trace of Precipitation, MM = Missing Value Source: NWS Daily Summary

Daily Weather History Graph

Daily Weather History Graph

Search for Another Location

Airport or City:

Trip Planner

Search our weather history database for the weather conditions in past years. The results will help you decide how hot, cold, wet, or windy it might be!

Date:

Astronomy

Apr. 30, 2014 Rise Set
Actual Time 6:38 AM MDT 8:43 PM MDT
Civil Twilight 6:07 AM MDT 9:14 PM MDT
Nautical Twilight 5:29 AM MDT 9:52 PM MDT
Astronomical Twilight 4:47 AM MDT 10:34 PM MDT
Moon 7:42 AM MDT (4/30) 10:27 PM MDT (4/30)
Length of Visible Light 15h 07m
Length of Day
14h 05m
Waxing Crescent, 3% of the Moon is Illuminated
Apr 30
Waxing Crescent
May 6
First Quarter
May 14
Full
May 21
Last Quarter
May 28
New

Hourly Weather History & Observations

Time (MDT) Temp. Windchill Dew Point Humidity Pressure Visibility Wind Dir Wind Speed Gust Speed Precip Events Conditions
12:58 AM 41.2 °F - 21.0 °F 45% 30.49 in 10.0 mi North 2.3 mph - N/A   Clear
1:58 AM 40.1 °F - 22.8 °F 50% 30.48 in 10.0 mi Calm Calm - N/A   Clear
2:58 AM 37.2 °F 31.2 °F 25.2 °F 62% 30.50 in 10.0 mi East 8.1 mph - N/A   Clear
3:58 AM 36.1 °F 29.9 °F 27.0 °F 69% 30.50 in 10.0 mi East 8.1 mph - N/A   Clear
4:58 AM 33.4 °F 27.3 °F 27.7 °F 79% 30.52 in 10.0 mi East 6.9 mph - N/A   Clear
5:58 AM 33.4 °F 27.3 °F 28.0 °F 81% 30.51 in 10.0 mi East 6.9 mph - N/A   Clear
6:58 AM 31.8 °F 23.9 °F 29.7 °F 92% 30.52 in 10.0 mi East 9.2 mph - N/A   Clear
7:58 AM 39.7 °F 33.7 °F 29.8 °F 68% 30.52 in 10.0 mi East 9.2 mph - N/A   Clear
8:58 AM 47.1 °F - 24.8 °F 42% 30.53 in 10.0 mi ESE 8.1 mph - N/A   Clear
9:58 AM 53.1 °F - 23.7 °F 32% 30.53 in 10.0 mi ESE 10.4 mph - N/A   Clear
10:58 AM 57.7 °F - 25.7 °F 29% 30.51 in 10.0 mi ESE 10.4 mph - N/A   Clear
11:58 AM 61.7 °F - 23.9 °F 24% 30.48 in 10.0 mi SSE 9.2 mph - N/A   Clear
12:58 PM 63.0 °F - 22.8 °F 22% 30.48 in 10.0 mi Variable 3.5 mph - N/A   Clear
1:58 PM 65.8 °F - 23.9 °F 20% 30.45 in 10.0 mi Variable 4.6 mph - N/A   Clear
2:58 PM 66.7 °F - 21.0 °F 18% 30.42 in 10.0 mi Variable 1.2 mph - N/A   Clear
3:58 PM 69.3 °F - 19.9 °F 15% 30.39 in 10.0 mi NNW 8.1 mph - N/A   Clear
4:58 PM 70.3 °F - 19.4 °F 14% 30.35 in 10.0 mi Variable 3.5 mph - N/A   Clear
5:58 PM 71.4 °F - 18.5 °F 13% 30.33 in 10.0 mi WSW 9.2 mph - N/A   Clear
6:58 PM 71.2 °F - 20.1 °F 14% 30.31 in 10.0 mi SW 5.8 mph - N/A   Clear
7:58 PM 70.2 °F - 25.2 °F 19% 30.28 in 10.0 mi NNW 11.5 mph - N/A   Clear
8:58 PM 64.9 °F - 29.7 °F 27% 30.27 in 10.0 mi NNW 11.5 mph - N/A   Clear
9:58 PM 60.8 °F - 30.7 °F 32% 30.30 in 10.0 mi NW 9.2 mph - N/A   Clear
10:58 PM 54.0 °F - 29.7 °F 39% 30.30 in 10.0 mi NNW 4.6 mph - N/A   Clear
11:58 PM 47.1 °F - 29.1 °F 50% 30.29 in 10.0 mi West 8.1 mph - N/A   Clear